Starlink 11701

operational
NORAD ID: 63760 Int'l Des: 2025-089 Owner: SPXS Country: US Constellation: starlink
LEOCIRCULAR

关于 Starlink 11701

正在加载描述...

实时位置

正在加载3D地球...

即将过境

高度历史

Altitude vs Time

uPlot chart will show altitude changes over time

两行轨道根数

1 63760U 25089K 26037.24250677 .00364476 00000-0 27039-2 0 9990
2 63760 42.9997 121.4408 0002456 262.7873 97.2716 15.70992215 45198
Epoch: Feb 6, 2026 • Age: 9 hours

当前状态

高度 362.4 km
速度 7.69 km/s
星下点 -31.03°S, 13.83°W
发射日期 Apr 29, 2025
运行时间 0.7 years
类型 internet

技术详情

分类 Payload
质量 960.00 kg
干质量 910.00 kg
总质量 960.00 kg
长度 0.30 m
直径 4.10 m
跨度 29.00 m
形状 Box + pan
制造商 SPXS
平台类型 Starlink V2MD
阶段状态 In Orbit
所有者/国家 SPXS/US

大型星座

Loading constellations...